| time (UTC) | temp F | wind direction | speed knots | gust knots | rain 1hr in | rain 24hr in | rain mn in | humidity % | barometer mb |
| 20260903102343 | 87 | 151 | 3.5 | 7.0 | 0.00 | 0.00 | 0.00 | 43 | 1024.2 |
| 20260903101341 | 86 | 118 | 3.5 | 8.7 | 0.00 | 0.00 | 0.00 | 45 | 1024.3 |
| 20260903100401 | 86 | 110 | 5.2 | 9.6 | 0.00 | 0.00 | 0.00 | 46 | 1024.2 |
| 20260903095352 | 87 | 180 | 1.7 | 7.8 | 0.00 | 0.00 | 0.00 | 46 | 1024.3 |
| 20260903094346 | 86 | 168 | 1.7 | 5.2 | 0.00 | 0.00 | 0.00 | 48 | 1024.4 |
| 20260903093346 | 85 | 247 | 0.0 | 4.3 | 0.00 | 0.00 | 0.00 | 48 | 1024.4 |
| 20260903092359 | 85 | 260 | 2.6 | 4.3 | 0.00 | 0.00 | 0.00 | 47 | 1024.4 |
| 20260903091351 | 84 | 290 | 1.7 | 3.5 | 0.00 | 0.00 | 0.00 | 48 | 1024.3 |
| 20260903090353 | 83 | 292 | 0.0 | 3.5 | 0.00 | 0.00 | 0.00 | 49 | 1024.3 |
| 20260903085349 | 82 | 32 | 0.0 | 1.7 | 0.00 | 0.00 | 0.00 | 51 | 1024.1 |
| 20260903084345 | 81 | 37 | 0.0 | 2.6 | 0.00 | 0.00 | 0.00 | 52 | 1024.2 |
| 20260903083344 | 80 | 38 | 0.9 | 2.6 | 0.00 | 0.00 | 0.00 | 53 | 1024.1 |
| 20260903082357 | 79 | 38 | 0.9 | 2.6 | 0.00 | 0.00 | 0.00 | 55 | 1023.9 |
| 20260903081359 | 79 | 38 | 0.0 | 1.7 | 0.00 | 0.00 | 0.00 | 56 | 1024.2 |
| 20260903080356 | 78 | 38 | 0.9 | 1.7 | 0.00 | 0.00 | 0.00 | 56 | 1024.0 |
| 20260903075352 | 77 | 38 | 0.0 | 1.7 | 0.00 | 0.00 | 0.00 | 59 | 1024.0 |
| 20260903074351 | 76 | 38 | 0.0 | 1.7 | 0.00 | 0.00 | 0.00 | 60 | 1023.9 |
| 20260903073352 | 76 | 38 | 0.9 | 1.7 | 0.00 | 0.00 | 0.00 | 61 | 1024.0 |
| 20260903072345 | 75 | 38 | 0.9 | 1.7 | 0.00 | 0.00 | 0.00 | 64 | 1024.1 |
| 20260903071343 | 74 | 38 | 0.9 | 1.7 | 0.00 | 0.00 | 0.00 | 65 | 1023.9 |
| 20260903070345 | 73 | 38 | 0.0 | 1.7 | 0.00 | 0.00 | 0.00 | 67 | 1023.9 |
| 20260903065400 | 72 | 38 | 0.9 | 2.6 | 0.00 | 0.00 | 0.00 | 67 | 1023.9 |
| 20260903064343 | 72 | 40 | 0.0 | 0.9 | 0.00 | 0.00 | 0.00 | 68 | 1023.9 |
| 20260903063340 | 72 | 39 | 0.0 | 0.9 | 0.00 | 0.00 | 0.00 | 70 | 1023.8 |
| 20260903062353 | 71 | 40 | 0.0 | 2.6 | 0.00 | 0.00 | 0.00 | 70 | 1023.7 |
| 20260903061357 | 70 | 39 | 2.6 | 3.5 | 0.00 | 0.00 | 0.00 | 70 | 1023.6 |
| 20260903060343 | 71 | 40 | 0.9 | 1.7 | 0.00 | 0.00 | 0.00 | 71 | 1023.5 |
| 20260903055343 | 70 | 40 | 0.0 | 1.7 | 0.00 | 0.00 | 0.00 | 72 | 1023.5 |
| 20260903054348 | 70 | 40 | 0.9 | 1.7 | 0.00 | 0.00 | 0.00 | 72 | 1023.3 |
| 20260903053356 | 70 | 40 | 0.0 | 0.9 | 0.00 | 0.00 | 0.00 | 71 | 1023.3 |
| 20260903052355 | 70 | 40 | 0.0 | 1.7 | 0.00 | 0.00 | 0.00 | 72 | 1023.1 |
| 20260903051356 | 70 | 40 | 0.0 | 0.9 | 0.00 | 0.00 | 0.00 | 71 | 1023.1 |
| 20260903050343 | 70 | 40 | 0.0 | 0.9 | 0.00 | 0.00 | 0.00 | 72 | 1023.1 |
| 20260903045357 | 70 | 40 | 0.0 | 1.7 | 0.00 | 0.00 | 0.00 | 71 | 1022.9 |
| 20260903044338 | 70 | 40 | 0.9 | 2.6 | 0.00 | 0.00 | 0.00 | 72 | 1022.9 |
| 20260903043344 | 70 | 40 | 0.9 | 3.5 | 0.00 | 0.00 | 0.00 | 71 | 1022.9 |
| 20260903042355 | 70 | 41 | 0.0 | 1.7 | 0.00 | 0.00 | 0.00 | 71 | 1022.9 |
| 20260903041356 | 70 | 41 | 0.0 | 1.7 | 0.00 | 0.00 | 0.00 | 71 | 1022.9 |
| 20260903040343 | 70 | 41 | 0.9 | 3.5 | 0.00 | 0.00 | 0.00 | 71 | 1023.0 |
| 20260903035340 | 70 | 40 | 0.9 | 2.6 | 0.00 | 0.00 | 0.00 | 71 | 1023.1 |
| 20260903034337 | 70 | 40 | 1.7 | 3.5 | 0.00 | 0.00 | 0.00 | 71 | 1023.2 |
| 20260903033358 | 71 | 40 | 0.9 | 3.5 | 0.00 | 0.00 | 0.00 | 70 | 1023.2 |
| 20260903032355 | 71 | 41 | 0.0 | 2.6 | 0.00 | 0.00 | 0.00 | 70 | 1023.2 |
| 20260903031351 | 71 | 41 | 0.9 | 1.7 | 0.00 | 0.00 | 0.00 | 70 | 1023.2 |
| 20260903030352 | 71 | 41 | 0.0 | 1.7 | 0.00 | 0.00 | 0.00 | 70 | 1023.3 |
| 20260903025349 | 71 | 41 | 0.9 | 2.6 | 0.00 | 0.00 | 0.00 | 70 | 1023.4 |
| 20260903024349 | 71 | 41 | 0.0 | 2.6 | 0.00 | 0.00 | 0.00 | 70 | 1023.4 |
| 20260903023349 | 72 | 41 | 0.0 | 0.0 | 0.00 | 0.00 | 0.00 | 71 | 1023.4 |
| 20260903022341 | 72 | 41 | 0.0 | 0.9 | 0.00 | 0.00 | 0.00 | 71 | 1023.4 |
| 20260903021342 | 72 | 41 | 0.0 | 1.7 | 0.00 | 0.00 | 0.00 | 70 | 1023.4 |
| 20260903020339 | 72 | 41 | 0.9 | 1.7 | 0.00 | 0.00 | 0.00 | 71 | 1023.4 |
| 20260903015356 | 72 | 41 | 0.0 | 1.7 | 0.00 | 0.00 | 0.00 | 71 | 1023.5 |
| 20260903014342 | 72 | 41 | 0.0 | 2.6 | 0.00 | 0.00 | 0.00 | 71 | 1023.4 |
| 20260903013346 | 72 | 41 | 0.0 | 4.3 | 0.00 | 0.00 | 0.00 | 70 | 1023.4 |
| 20260903012343 | 72 | 42 | 1.7 | 4.3 | 0.00 | 0.00 | 0.00 | 70 | 1023.4 |
| 20260903011352 | 73 | 44 | 2.6 | 3.5 | 0.00 | 0.00 | 0.00 | 69 | 1023.5 |
| 20260903010353 | 73 | 45 | 0.9 | 2.6 | 0.00 | 0.00 | 0.00 | 68 | 1023.6 |
| 20260903005351 | 73 | 45 | 1.7 | 2.6 | 0.00 | 0.00 | 0.00 | 68 | 1023.5 |
| 20260903004351 | 73 | 45 | 0.0 | 1.7 | 0.00 | 0.00 | 0.00 | 68 | 1023.6 |
| 20260903003347 | 73 | 45 | 0.0 | 1.7 | 0.00 | 0.00 | 0.00 | 67 | 1023.7 |
| 20260903002342 | 74 | 45 | 0.9 | 1.7 | 0.00 | 0.00 | 0.00 | 67 | 1023.7 |
| 20260903001342 | 74 | 45 | 0.0 | 0.9 | 0.00 | 0.00 | 0.00 | 67 | 1023.7 |
| 20260903000347 | 74 | 45 | 0.0 | 0.9 | 0.00 | 0.00 | 0.00 | 67 | 1023.6 |
| 20260902235345 | 74 | 45 | 0.0 | 1.7 | 0.00 | 0.00 | 0.00 | 66 | 1023.7 |
| 20260902234341 | 74 | 45 | 1.7 | 2.6 | 0.00 | 0.00 | 0.00 | 66 | 1023.6 |
| 20260902233359 | 74 | 45 | 0.9 | 3.5 | 0.00 | 0.00 | 0.00 | 66 | 1023.5 |
| 20260902232356 | 74 | 45 | 1.7 | 3.5 | 0.00 | 0.00 | 0.00 | 65 | 1023.5 |
| 20260902231342 | 74 | 49 | 1.7 | 3.5 | 0.00 | 0.00 | 0.00 | 64 | 1023.5 |
| 20260902230356 | 75 | 93 | 0.9 | 2.6 | 0.00 | 0.00 | 0.00 | 64 | 1023.5 |
| 20260902225354 | 75 | 96 | 1.7 | 3.5 | 0.00 | 0.00 | 0.00 | 64 | 1023.5 |
| 20260902224355 | 76 | 135 | 0.0 | 1.7 | 0.00 | 0.00 | 0.00 | 64 | 1023.5 |
| 20260902223356 | 76 | 135 | 0.0 | 0.9 | 0.00 | 0.00 | 0.00 | 64 | 1023.5 |
| 20260902222355 | 76 | 135 | 0.9 | 1.7 | 0.00 | 0.00 | 0.00 | 63 | 1023.5 |
| 20260902221340 | 76 | 135 | 0.0 | 0.9 | 0.00 | 0.00 | 0.00 | 63 | 1023.6 |
| 20260902220344 | 76 | 135 | 0.0 | 0.9 | 0.00 | 0.00 | 0.00 | 62 | 1023.6 |
| 20260902215400 | 76 | 135 | 0.0 | 0.9 | 0.00 | 0.00 | 0.00 | 62 | 1023.6 |
| 20260902214338 | 77 | 135 | 0.0 | 1.7 | 0.00 | 0.00 | 0.00 | 61 | 1023.6 |
| 20260902213341 | 77 | 135 | 0.0 | 2.6 | 0.00 | 0.00 | 0.00 | 60 | 1023.5 |
| 20260902212356 | 77 | 135 | 0.0 | 0.0 | 0.00 | 0.00 | 0.00 | 60 | 1023.6 |
| 20260902211355 | 77 | 135 | 0.0 | 0.9 | 0.00 | 0.00 | 0.00 | 60 | 1023.4 |
| 20260902210341 | 77 | 135 | 0.9 | 2.6 | 0.00 | 0.00 | 0.00 | 59 | 1023.5 |
| 20260902205339 | 78 | 135 | 0.0 | 1.7 | 0.00 | 0.00 | 0.00 | 59 | 1023.5 |
| 20260902204357 | 78 | 135 | 0.0 | 0.9 | 0.00 | 0.00 | 0.00 | 59 | 1023.3 |
| 20260902203343 | 78 | 135 | 0.0 | 0.9 | 0.00 | 0.00 | 0.00 | 58 | 1023.5 |
| 20260902202400 | 78 | 135 | 0.0 | 0.9 | 0.00 | 0.00 | 0.00 | 59 | 1023.4 |
| 20260902201401 | 78 | 135 | 0.9 | 2.6 | 0.00 | 0.00 | 0.00 | 58 | 1023.4 |
| 20260902200340 | 78 | 135 | 0.9 | 2.6 | 0.00 | 0.00 | 0.00 | 59 | 1023.3 |
| 20260902195359 | 78 | 135 | 0.0 | 3.5 | 0.00 | 0.00 | 0.00 | 59 | 1023.2 |
| 20260902194338 | 79 | 136 | 0.0 | 2.6 | 0.00 | 0.00 | 0.00 | 59 | 1023.2 |
| 20260902193346 | 80 | 136 | 1.7 | 3.5 | 0.00 | 0.00 | 0.00 | 60 | 1023.2 |
| 20260902192359 | 80 | 136 | 0.9 | 2.6 | 0.00 | 0.00 | 0.00 | 59 | 1023.1 |
| 20260902191356 | 80 | 136 | 0.0 | 2.6 | 0.00 | 0.00 | 0.00 | 59 | 1022.9 |
| 20260902190338 | 80 | 135 | 0.9 | 2.6 | 0.00 | 0.00 | 0.00 | 59 | 1022.8 |
| 20260902185340 | 80 | 137 | 2.6 | 4.3 | 0.00 | 0.00 | 0.00 | 58 | 1022.7 |
| 20260902184357 | 80 | 200 | 0.9 | 3.5 | 0.00 | 0.00 | 0.00 | 58 | 1022.6 |
| 20260902183359 | 81 | 207 | 0.0 | 4.3 | 0.00 | 0.00 | 0.00 | 57 | 1022.5 |
| 20260902182351 | 81 | 151 | 0.9 | 3.5 | 0.00 | 0.00 | 0.00 | 57 | 1022.5 |
| 20260902181354 | 81 | 152 | 1.7 | 7.0 | 0.00 | 0.00 | 0.00 | 56 | 1022.5 |
| 20260902180349 | 82 | 126 | 0.9 | 3.5 | 0.00 | 0.00 | 0.00 | 56 | 1022.4 |
| 20260902175402 | 82 | 90 | 0.9 | 6.1 | 0.00 | 0.00 | 0.00 | 55 | 1022.1 |
| 20260902174359 | 82 | 207 | 1.7 | 7.8 | 0.00 | 0.00 | 0.00 | 56 | 1022.2 |
| 20260902173357 | 82 | 171 | 1.7 | 7.0 | 0.00 | 0.00 | 0.00 | 56 | 1022.1 |
| 20260902172349 | 82 | 167 | 3.5 | 7.8 | 0.00 | 0.00 | 0.00 | 56 | 1022.0 |
| 20260902171342 | 82 | 127 | 3.5 | 9.6 | 0.00 | 0.00 | 0.00 | 55 | 1022.0 |
| 20260902170357 | 82 | 125 | 2.6 | 10.4 | 0.00 | 0.00 | 0.00 | 55 | 1022.1 |
| 20260902165348 | 83 | 126 | 5.2 | 10.4 | 0.00 | 0.00 | 0.00 | 54 | 1022.0 |
| 20260902164343 | 83 | 127 | 5.2 | 11.3 | 0.00 | 0.00 | 0.00 | 53 | 1021.9 |
| 20260902163343 | 83 | 110 | 6.1 | 10.4 | 0.00 | 0.00 | 0.00 | 52 | 1022.0 |
| 20260902162355 | 84 | 124 | 5.2 | 10.4 | 0.00 | 0.00 | 0.00 | 51 | 1022.1 |
| 20260902161349 | 85 | 136 | 3.5 | 7.8 | 0.00 | 0.00 | 0.00 | 49 | 1022.0 |
| 20260902160346 | 85 | 208 | 2.6 | 9.6 | 0.00 | 0.00 | 0.00 | 49 | 1022.2 |
| 20260902155351 | 85 | 131 | 4.3 | 8.7 | 0.00 | 0.00 | 0.00 | 49 | 1022.1 |
| 20260902154351 | 84 | 139 | 5.2 | 11.3 | 0.00 | 0.00 | 0.00 | 50 | 1022.2 |
| 20260902153347 | 85 | 140 | 4.3 | 10.4 | 0.00 | 0.00 | 0.00 | 47 | 1022.1 |
| 20260902152347 | 85 | 205 | 4.3 | 10.4 | 0.00 | 0.00 | 0.00 | 49 | 1022.2 |
| 20260902151342 | 84 | 133 | 5.2 | 9.6 | 0.00 | 0.00 | 0.00 | 49 | 1022.2 |
| 20260902150403 | 85 | 170 | 3.5 | 9.6 | 0.00 | 0.00 | 0.00 | 48 | 1022.2 |
| 20260902145357 | 85 | 148 | 5.2 | 11.3 | 0.00 | 0.00 | 0.00 | 49 | 1022.3 |
| 20260902144354 | 85 | 149 | 3.5 | 12.2 | 0.00 | 0.00 | 0.00 | 46 | 1022.3 |
| 20260902143351 | 85 | 153 | 5.2 | 11.3 | 0.00 | 0.00 | 0.00 | 46 | 1022.4 |
| 20260902142359 | 85 | 124 | 5.2 | 10.4 | 0.00 | 0.00 | 0.00 | 45 | 1022.5 |
| 20260902141354 | 85 | 119 | 5.2 | 11.3 | 0.00 | 0.00 | 0.00 | 44 | 1022.5 |
| 20260902140354 | 85 | 156 | 3.5 | 9.6 | 0.00 | 0.00 | 0.00 | 45 | 1022.7 |
| 20260902135347 | 85 | 128 | 8.7 | 12.2 | 0.00 | 0.00 | 0.00 | 45 | 1022.5 |
| 20260902134347 | 86 | 123 | 5.2 | 13.0 | 0.00 | 0.00 | 0.00 | 44 | 1022.7 |
| 20260902133343 | 85 | 201 | 4.3 | 13.0 | 0.00 | 0.00 | 0.00 | 44 | 1022.7 |
| 20260902132358 | 85 | 95 | 5.2 | 12.2 | 0.00 | 0.00 | 0.00 | 43 | 1022.8 |
| 20260902131340 | 85 | 118 | 8.7 | 13.9 | 0.00 | 0.00 | 0.00 | 43 | 1023.0 |
| 20260902130401 | 85 | 122 | 7.8 | 13.0 | 0.00 | 0.00 | 0.00 | 42 | 1022.9 |
| 20260902125347 | 85 | 128 | 6.1 | 14.8 | 0.00 | 0.00 | 0.00 | 42 | 1022.8 |
| 20260902124401 | 87 | 127 | 6.1 | 10.4 | 0.00 | 0.00 | 0.00 | 41 | 1022.8 |
| 20260902123353 | 86 | 165 | 3.5 | 11.3 | 0.00 | 0.00 | 0.00 | 41 | 1022.7 |
| 20260902122344 | 86 | 202 | 3.5 | 14.8 | 0.00 | 0.00 | 0.00 | 42 | 1022.7 |
| 20260902121339 | 86 | 238 | 3.5 | 10.4 | 0.00 | 0.00 | 0.00 | 40 | 1022.7 |
| 20260902120401 | 86 | 236 | 5.2 | 13.0 | 0.00 | 0.00 | 0.00 | 40 | 1022.6 |
| 20260902115355 | 86 | 137 | 4.3 | 14.8 | 0.00 | 0.00 | 0.00 | 39 | 1022.7 |
| 20260902114349 | 87 | 133 | 7.8 | 13.0 | 0.00 | 0.00 | 0.00 | 38 | 1022.7 |
| 20260902113349 | 87 | 158 | 7.0 | 14.8 | 0.00 | 0.00 | 0.00 | 38 | 1022.6 |
| 20260902112401 | 87 | 167 | 5.2 | 13.0 | 0.00 | 0.00 | 0.00 | 38 | 1022.6 |
| 20260902111340 | 88 | 225 | 2.6 | 11.3 | 0.00 | 0.00 | 0.00 | 38 | 1022.6 |
| 20260902110400 | 88 | 163 | 6.1 | 11.3 | 0.00 | 0.00 | 0.00 | 37 | 1022.6 |
| 20260902105351 | 88 | 250 | 3.5 | 10.4 | 0.00 | 0.00 | 0.00 | 37 | 1022.5 |
| 20260902104347 | 87 | 128 | 4.3 | 11.3 | 0.00 | 0.00 | 0.00 | 37 | 1022.6 |
| 20260902103349 | 88 | 125 | 6.1 | 12.2 | 0.00 | 0.00 | 0.00 | 36 | 1022.6 |